Forside
METAR-TAF:

METAR-TAF

Lufthavne :

Merimbula, Australien

Breddekreds: 36-54-31S, længdekreds: 149-54-05E, højde: 2 m

Aktuelle vejr

Denne rapport blev lavet for 47 minutter siden, kl. 00:00 UTC
Vind 5 kt fra østsydøst
Temperatur 21°C
Fugtighed 49%
Tryk 1031 hPa
Sigt 10 km eller mere

METAR: YMER 240000Z AUTO 12005KT 9999 // NCD 21/10 Q1031

Tid: 11:47 (00:47 UTC)


TAF: fraværende

Vejrobservationer og prognoser fra mere end 4000 lufthavne (METAR og TAF).

De gule og røde prikker repræsenterer de meteorologiske stationer.

Flyt musen over at se navnet på stationen.

Så klik over at se vejr observationer og prognoser.

At skifte det kort: Klik på de grønne knapper med et sort kors for at zoome ind; på den grønne knap med en bindestreg for at zoome ud; eller på de grønne pile for tilstødende kort.


METAR-TAF: